Location: ?????????
(41.2393°N, 22.9479°E)
Time: 22:43:49
(UTC+00:00)

PSLV R/B - Pass Details

Date: 17 November 2025
Orbit: 561 x 589 km, 98.0° (Epoch: 09 December)

Event Time Altitude Azimuth Distance (km) Brightness Sun altitude
Rises 16:09:33 0° 136° (SE) 2,761 6.6 -11.8°
Reaches altitude 10° 16:11:59 10° 123° (ESE) 1,864 5.6 -12.3°
Maximum altitude 16:15:15 24° 68° (ENE) 1,180 4.4 -12.9°
Drops below altitude 10° 16:18:32 10° 14° (NNE) 1,865 5.8 -13.5°
Sets 16:20:57 0° 1° (N) 2,764 6.8 -13.9°
